Time,TemperatureF,DewpointF,PressureIn,WindDirection,WindDirectionDegrees,WindSpeedMPH,WindSpeedGustMPH,Humidity,HourlyPrecipIn,Conditions,Clouds,dailyrainin,SoftwareType,DateUTC
2013-02-12 00:12:00,34.2,28.1,29.84,WSW,247,2.2,-999.0,78,-99.99,,,0.00,Acu-Link.com,2013-02-12 05:12:00,
2013-02-12 00:27:00,33.4,27.3,29.84,West,270,0.0,-999.0,78,-99.99,,,0.00,Acu-Link.com,2013-02-12 05:27:00,
2013-02-12 00:42:00,32.5,26.7,29.85,WSW,247,2.7,-999.0,79,-99.99,,,0.00,Acu-Link.com,2013-02-12 05:42:00,
2013-02-12 00:57:00,32.7,26.9,29.85,West,270,2.2,-999.0,79,-99.99,,,0.00,Acu-Link.com,2013-02-12 05:57:00,
2013-02-12 01:13:00,32.5,26.7,29.85,West,270,2.7,-999.0,79,-99.99,,,0.00,Acu-Link.com,2013-02-12 06:13:00,
2013-02-12 01:28:00,32.2,26.4,29.84,WSW,247,2.7,-999.0,79,-99.99,,,0.00,Acu-Link.com,2013-02-12 06:28:00,
2013-02-12 01:43:00,32.0,26.5,29.84,SW,225,3.2,-999.0,80,-99.99,,,0.00,Acu-Link.com,2013-02-12 06:43:00,
2013-02-12 01:58:00,31.6,26.2,29.84,WSW,247,2.2,-999.0,80,-99.99,,,0.00,Acu-Link.com,2013-02-12 06:58:00,
2013-02-12 02:13:00,30.4,25.0,29.85,SSE,157,0.0,-999.0,80,-99.99,,,0.00,Acu-Link.com,2013-02-12 07:13:00,
2013-02-12 02:28:00,29.7,24.6,29.85,WSW,247,0.0,-999.0,81,-99.99,,,0.00,Acu-Link.com,2013-02-12 07:28:00,
2013-02-12 02:43:00,30.0,25.2,29.86,SW,225,3.7,-999.0,82,-99.99,,,0.00,Acu-Link.com,2013-02-12 07:43:00,
2013-02-12 03:06:00,30.2,25.4,29.86,West,270,2.7,-999.0,82,-99.99,,,0.00,Acu-Link.com,2013-02-12 08:06:00,
2013-02-12 03:22:00,30.2,25.4,29.86,West,270,2.7,-999.0,82,-99.99,,,0.00,Acu-Link.com,2013-02-12 08:22:00,
2013-02-12 03:37:00,29.8,25.0,29.85,West,270,1.7,-999.0,82,-99.99,,,0.00,Acu-Link.com,2013-02-12 08:37:00,
2013-02-12 03:52:00,28.9,24.1,29.84,WNW,292,0.0,-999.0,82,-99.99,,,0.00,Acu-Link.com,2013-02-12 08:52:00,
2013-02-12 04:18:00,28.6,24.1,29.84,West,270,2.2,-999.0,83,-99.99,,,0.00,Acu-Link.com,2013-02-12 09:18:00,
2013-02-12 04:34:00,28.6,24.1,29.84,West,270,0.0,-999.0,83,-99.99,,,0.00,Acu-Link.com,2013-02-12 09:34:00,
2013-02-12 04:49:00,28.0,23.5,29.84,WSW,247,0.0,-999.0,83,-99.99,,,0.00,Acu-Link.com,2013-02-12 09:49:00,
2013-02-12 05:04:00,28.4,23.9,29.86,WSW,247,0.0,-999.0,83,-99.99,,,0.00,Acu-Link.com,2013-02-12 10:04:00,
2013-02-12 05:19:00,28.2,23.7,29.85,West,270,0.0,-999.0,83,-99.99,,,0.00,Acu-Link.com,2013-02-12 10:19:00,
2013-02-12 05:35:00,27.7,23.2,29.85,SW,225,0.0,-999.0,83,-99.99,,,0.00,Acu-Link.com,2013-02-12 10:35:00,
2013-02-12 05:50:00,27.3,22.8,29.86,WNW,292,0.0,-999.0,83,-99.99,,,0.00,Acu-Link.com,2013-02-12 10:50:00,
2013-02-12 06:05:00,27.1,22.6,29.87,WSW,247,1.7,-999.0,83,-99.99,,,0.00,Acu-Link.com,2013-02-12 11:05:00,
2013-02-12 06:20:00,27.1,22.9,29.87,WSW,247,0.0,-999.0,84,-99.99,,,0.00,Acu-Link.com,2013-02-12 11:20:00,
2013-02-12 06:36:00,27.7,23.5,29.86,SW,225,1.7,-999.0,84,-99.99,,,0.00,Acu-Link.com,2013-02-12 11:36:00,
2013-02-12 06:51:00,28.6,24.4,29.87,SW,225,2.7,-999.0,84,-99.99,,,0.00,Acu-Link.com,2013-02-12 11:51:00,
2013-02-12 07:06:00,29.1,24.6,29.87,WSW,247,2.7,-999.0,83,-99.99,,,0.00,Acu-Link.com,2013-02-12 12:06:00,
2013-02-12 07:21:00,28.8,24.3,29.88,SSW,202,0.0,-999.0,83,-99.99,,,0.00,Acu-Link.com,2013-02-12 12:21:00,
2013-02-12 07:36:00,27.9,23.4,29.88,West,270,0.0,-999.0,83,-99.99,,,0.00,Acu-Link.com,2013-02-12 12:36:00,
2013-02-12 07:51:00,27.0,22.5,29.89,WSW,247,0.0,-999.0,83,-99.99,,,0.00,Acu-Link.com,2013-02-12 12:51:00,
2013-02-12 08:06:00,27.0,22.5,29.88,West,270,0.0,-999.0,83,-99.99,,,0.00,Acu-Link.com,2013-02-12 13:06:00,
2013-02-12 08:22:00,30.0,25.8,29.88,WSW,247,0.0,-999.0,84,-99.99,,,0.00,Acu-Link.com,2013-02-12 13:22:00,
2013-02-12 08:37:00,32.2,26.7,29.88,West,270,0.0,-999.0,80,-99.99,,,0.00,Acu-Link.com,2013-02-12 13:37:00,
2013-02-12 08:52:00,35.8,28.7,29.89,SW,225,2.2,-999.0,75,-99.99,,,0.00,Acu-Link.com,2013-02-12 13:52:00,
2013-02-12 09:07:00,36.9,29.1,29.89,WSW,247,2.2,-999.0,73,-99.99,,,0.00,Acu-Link.com,2013-02-12 14:07:00,
2013-02-12 09:22:00,39.0,30.8,29.89,West,270,1.7,-999.0,72,-99.99,,,0.00,Acu-Link.com,2013-02-12 14:22:00,
2013-02-12 09:37:00,39.4,30.4,29.89,West,270,3.2,-999.0,70,-99.99,,,0.00,Acu-Link.com,2013-02-12 14:37:00,
2013-02-12 09:52:00,40.6,30.9,29.89,SW,225,5.8,-999.0,68,-99.99,,,0.00,Acu-Link.com,2013-02-12 14:52:00,
2013-02-12 10:07:00,41.2,30.3,29.89,West,270,3.7,-999.0,65,-99.99,,,0.00,Acu-Link.com,2013-02-12 15:07:00,
2013-02-12 10:22:00,42.3,31.0,29.88,WSW,247,5.3,-999.0,64,-99.99,,,0.00,Acu-Link.com,2013-02-12 15:22:00,
2013-02-12 10:37:00,42.3,29.4,29.87,SW,225,1.1,-999.0,60,-99.99,,,0.00,Acu-Link.com,2013-02-12 15:37:00,
2013-02-12 10:53:00,43.3,29.9,29.86,WNW,292,2.7,-999.0,59,-99.99,,,0.00,Acu-Link.com,2013-02-12 15:53:00,
2013-02-12 11:08:00,44.4,30.1,29.86,West,270,3.2,-999.0,57,-99.99,,,0.00,Acu-Link.com,2013-02-12 16:08:00,
2013-02-12 11:23:00,46.2,30.5,29.86,WSW,247,4.7,-999.0,54,-99.99,,,0.00,Acu-Link.com,2013-02-12 16:23:00,
2013-02-12 11:38:00,47.1,31.3,29.85,West,270,7.3,-999.0,54,-99.99,,,0.00,Acu-Link.com,2013-02-12 16:38:00,
2013-02-12 11:53:00,45.7,29.1,29.84,WSW,247,4.7,-999.0,52,-99.99,,,0.00,Acu-Link.com,2013-02-12 16:53:00,
2013-02-12 12:08:00,47.1,29.9,29.81,WSW,247,2.7,-999.0,51,-99.99,,,0.00,Acu-Link.com,2013-02-12 17:08:00,
2013-02-12 12:23:00,47.8,30.1,29.78,WNW,292,4.2,-999.0,50,-99.99,,,0.00,Acu-Link.com,2013-02-12 17:23:00,
2013-02-12 12:38:00,49.1,29.2,29.77,NNE,22,4.7,-999.0,46,-99.99,,,0.00,Acu-Link.com,2013-02-12 17:38:00,
2013-02-12 12:53:00,49.1,29.8,29.78,ENE,67,4.7,-999.0,47,-99.99,,,0.00,Acu-Link.com,2013-02-12 17:53:00,
2013-02-12 13:09:00,48.9,28.5,29.80,West,270,3.2,-999.0,45,-99.99,,,0.00,Acu-Link.com,2013-02-12 18:09:00,
2013-02-12 13:24:00,49.8,30.4,29.82,South,180,4.2,-999.0,47,-99.99,,,0.00,Acu-Link.com,2013-02-12 18:24:00,
2013-02-12 13:39:00,49.6,30.2,29.82,WSW,247,5.8,-999.0,47,-99.99,,,0.00,Acu-Link.com,2013-02-12 18:39:00,
2013-02-12 13:54:00,50.0,30.0,29.81,WSW,247,5.8,-999.0,46,-99.99,,,0.00,Acu-Link.com,2013-02-12 18:54:00,
2013-02-12 14:09:00,50.0,30.0,29.81,SW,225,6.8,-999.0,46,-99.99,,,0.00,Acu-Link.com,2013-02-12 19:09:00,
2013-02-12 14:24:00,50.2,30.8,29.81,SW,225,7.3,-999.0,47,-99.99,,,0.00,Acu-Link.com,2013-02-12 19:24:00,
2013-02-12 14:39:00,49.6,30.7,29.79,WSW,247,6.8,-999.0,48,-99.99,,,0.00,Acu-Link.com,2013-02-12 19:39:00,
2013-02-12 14:54:00,49.5,30.1,29.78,WSW,247,3.7,-999.0,47,-99.99,,,0.00,Acu-Link.com,2013-02-12 19:54:00,
2013-02-12 15:09:00,49.3,28.3,29.78,WSW,247,5.8,-999.0,44,-99.99,,,0.00,Acu-Link.com,2013-02-12 20:09:00,
2013-02-12 15:24:00,49.8,30.4,29.79,WSW,247,3.2,-999.0,47,-99.99,,,0.00,Acu-Link.com,2013-02-12 20:24:00,
2013-02-12 15:40:00,50.7,30.7,29.79,WSW,247,3.7,-999.0,46,-99.99,,,0.00,Acu-Link.com,2013-02-12 20:40:00,
2013-02-12 15:55:00,50.5,30.5,29.79,SW,225,4.2,-999.0,46,-99.99,,,0.00,Acu-Link.com,2013-02-12 20:55:00,
2013-02-12 16:10:00,50.4,31.5,29.78,WSW,247,4.7,-999.0,48,-99.99,,,0.00,Acu-Link.com,2013-02-12 21:10:00,
2013-02-12 16:25:00,49.6,30.7,29.77,WSW,247,4.2,-999.0,48,-99.99,,,0.00,Acu-Link.com,2013-02-12 21:25:00,
2013-02-12 16:40:00,49.1,29.8,29.76,WSW,247,4.7,-999.0,47,-99.99,,,0.00,Acu-Link.com,2013-02-12 21:40:00,
2013-02-12 16:55:00,48.6,30.8,29.75,SSW,202,3.2,-999.0,50,-99.99,,,0.00,Acu-Link.com,2013-02-12 21:55:00,
2013-02-12 17:10:00,48.4,32.5,29.73,SW,225,2.7,-999.0,54,-99.99,,,0.00,Acu-Link.com,2013-02-12 22:10:00,
2013-02-12 17:25:00,47.7,30.9,29.73,SSW,202,1.1,-999.0,52,-99.99,,,0.00,Acu-Link.com,2013-02-12 22:25:00,
2013-02-12 17:40:00,47.1,31.8,29.71,West,270,0.0,-999.0,55,-99.99,,,0.00,Acu-Link.com,2013-02-12 22:40:00,
2013-02-12 17:56:00,45.5,29.4,29.69,North,0,0.0,-999.0,53,-99.99,,,0.00,Acu-Link.com,2013-02-12 22:56:00,
2013-02-12 18:11:00,43.2,29.9,29.68,ESE,112,0.0,-999.0,59,-99.99,,,0.00,Acu-Link.com,2013-02-12 23:11:00,
2013-02-12 18:26:00,40.6,29.8,29.68,SE,135,0.0,-999.0,65,-99.99,,,0.00,Acu-Link.com,2013-02-12 23:26:00,
2013-02-12 18:41:00,39.6,29.2,29.69,NNW,337,2.2,-999.0,66,-99.99,,,0.00,Acu-Link.com,2013-02-12 23:41:00,
2013-02-12 18:56:00,39.0,28.6,29.69,NNW,337,0.0,-999.0,66,-99.99,,,0.00,Acu-Link.com,2013-02-12 23:56:00,
2013-02-12 19:11:00,37.4,28.5,29.70,SSW,202,0.0,-999.0,70,-99.99,,,0.00,Acu-Link.com,2013-02-13 00:11:00,
2013-02-12 19:26:00,36.5,27.3,29.71,WSW,247,0.0,-999.0,69,-99.99,,,0.00,Acu-Link.com,2013-02-13 00:26:00,
2013-02-12 19:41:00,35.6,28.5,29.70,SSW,202,0.0,-999.0,75,-99.99,,,0.00,Acu-Link.com,2013-02-13 00:41:00,
2013-02-12 19:56:00,35.2,27.4,29.71,SSE,157,0.0,-999.0,73,-99.99,,,0.00,Acu-Link.com,2013-02-13 00:56:00,
2013-02-12 20:12:00,35.4,28.6,29.69,SSE,157,2.7,-999.0,76,-99.99,,,0.00,Acu-Link.com,2013-02-13 01:12:00,
2013-02-12 20:27:00,34.9,27.8,29.70,WSW,247,0.0,-999.0,75,-99.99,,,0.00,Acu-Link.com,2013-02-13 01:27:00,
2013-02-12 20:42:00,34.7,28.2,29.70,West,270,2.7,-999.0,77,-99.99,,,0.00,Acu-Link.com,2013-02-13 01:42:00,
2013-02-12 20:57:00,34.7,27.9,29.70,WSW,247,1.7,-999.0,76,-99.99,,,0.00,Acu-Link.com,2013-02-13 01:57:00,
2013-02-12 21:12:00,33.8,26.7,29.70,NNE,22,0.0,-999.0,75,-99.99,,,0.00,Acu-Link.com,2013-02-13 02:12:00,
2013-02-12 21:27:00,32.4,26.9,29.68,SSE,157,1.7,-999.0,80,-99.99,,,0.00,Acu-Link.com,2013-02-13 02:27:00,
2013-02-12 21:42:00,32.4,26.6,29.68,South,180,0.0,-999.0,79,-99.99,,,0.00,Acu-Link.com,2013-02-13 02:42:00,
2013-02-12 21:57:00,32.0,26.2,29.68,East,90,0.0,-999.0,79,-99.99,,,0.00,Acu-Link.com,2013-02-13 02:57:00,
2013-02-12 22:12:00,31.3,26.2,29.67,ENE,67,0.0,-999.0,81,-99.99,,,0.00,Acu-Link.com,2013-02-13 03:12:00,
2013-02-12 22:28:00,30.6,25.5,29.67,West,270,0.0,-999.0,81,-99.99,,,0.00,Acu-Link.com,2013-02-13 03:28:00,
2013-02-12 22:43:00,31.1,26.6,29.66,West,270,3.2,-999.0,83,-99.99,,,0.00,Acu-Link.com,2013-02-13 03:43:00,
2013-02-12 22:58:00,31.8,27.2,29.66,SW,225,2.2,-999.0,83,-99.99,,,0.00,Acu-Link.com,2013-02-13 03:58:00,
2013-02-12 23:13:00,31.6,27.0,29.66,WSW,247,2.2,-999.0,83,-99.99,,,0.00,Acu-Link.com,2013-02-13 04:13:00,
2013-02-12 23:28:00,30.7,26.2,29.65,West,270,0.0,-999.0,83,-99.99,,,0.00,Acu-Link.com,2013-02-13 04:28:00,
2013-02-12 23:43:00,30.2,25.7,29.65,NE,45,0.0,-999.0,83,-99.99,,,0.00,Acu-Link.com,2013-02-13 04:43:00,
2013-02-12 23:58:00,29.8,25.3,29.64,South,180,0.0,-999.0,83,-99.99,,,0.00,Acu-Link.com,2013-02-13 04:58:00,